Tracking 20083 objects as of 9-Dec-2019
HD Live streaming from Space Station
objects crossing your sky now

NOAA 16 DEB

Track NOAA 16 DEB now!
10-day predictions


NORAD ID: 42368
Int'l Code: 2000-055RL
Perigee: 852.6 km
Apogee: 869.2 km
Inclination: 98.9 °
Period: 102.0 minutes
Semi major axis: 7231 km
RCS: Unknown
Launch date: September 21, 2000
Source: United States (US)
Launch site: AIR FORCE WESTERN TEST RANGE (AFWTR)

Note: This is SATELLITE DEBRIS
aabbcc
Your satellite tracking list
Your tracking list is empty




NASA's NSSDC Master Catalog

Two Line Element Set (TLE):
1 42368U 00055RL  19342.46374129 +.00000475 +00000-0 +28543-3 0  9999
2 42368 098.8559 054.3857 0011502 046.6415 313.5713 14.11642914189729
Source of the keplerian elements: AFSPC